Location: Arrodets-la-Barthe
(43.0306°N, 0.2829°E)
Time: 15:37:19
(UTC+00:00)

Cosmos 2360 Rocket - Pass Details

Date: 24 October 2021
Orbit: 832 x 846 km, 71.0° (Epoch: 07 December)

Event Time Altitude Azimuth Distance (km) Brightness Sun altitude
Rises 19:56:46 0° 237° (WSW) 3,379 5.9 -32.4°
Reaches altitude 10° 19:59:33 10° 249° (WSW) 2,451 5.2 -32.9°
Maximum altitude 20:04:19 28° 307° (NW) 1,540 4.0 -33.8°
Enters shadow 20:08:19 14° 360° (N) 2,225 4.5 -34.5°
